Weather History for Freeport, IL

Change the Weather History Date:

Monday, February 25, 2013

  Actual Average Record
Temperature  
Mean Temperature 26 °F -  
Max Temperature 38 °F 34 °F 59 °F (1976)
Min Temperature 13 °F 17 °F -10 °F (1993)
Degree Days  
Heating Degree Days 40    
Moisture  
Dew Point 22 °F    
Average Humidity 83    
Maximum Humidity 93    
Minimum Humidity 72    
Precipitation  
Precipitation 0.00 in - - ()
Sea Level Pressure  
Sea Level Pressure 30.10 in    
Wind  
Wind Speed 2 mph (NE)    
Max Wind Speed 10 mph    
Max Gust Speed -    
Visibility 6 miles    
Events      
Averages and records for this station are not official NWS values.
T = Trace of Precipitation, MM = Missing Value Source: NWS Daily Summary

Daily Weather History Graph

Daily Weather History Graph

Search for Another Location

Airport:

Trip Planner

Search our weather history database for the weather conditions in past years. The results will help you decide how hot, cold, wet, or windy it might be!

Date:

Astronomy

Feb. 25, 2013 Rise Set
Actual Time 6:39 AM CST 5:43 PM CST
Civil Twilight 6:11 AM CST 6:12 PM CST
Nautical Twilight 5:38 AM CST 6:44 PM CST
Astronomical Twilight 5:06 AM CST 7:17 PM CST
Moon 5:58 PM CST (2/25) 6:09 AM CST (2/25)
Length of Visible Light 12h 00m
Length of Day
11h 04m
Full, 100% of the Moon is Illuminated
Feb 25
Full
Feb 25
Full
Mar 4
Last Quarter
Mar 11
New
Mar 19
First Quarter

Hourly Weather History & Observations

Time (CST) Temp. Windchill Dew Point Humidity Pressure Visibility Wind Dir Wind Speed Gust Speed Precip Events Conditions
12:15 AM 16.9 °F - 13.8 °F 88% 30.13 in 7.0 mi Calm Calm - N/A   Clear
12:35 AM 16.7 °F - 13.8 °F 88% 30.14 in 7.0 mi Calm Calm - N/A   Clear
12:55 AM 16.2 °F - 13.6 °F 90% 30.13 in 5.0 mi Calm Calm - N/A   Clear
1:15 AM 16.9 °F - 14.2 °F 89% 30.14 in 7.0 mi Calm Calm - N/A   Clear
1:35 AM 16.2 °F - 13.5 °F 89% 30.13 in 5.0 mi Calm Calm - N/A   Clear
1:55 AM 16.2 °F - 13.6 °F 90% 30.14 in 4.0 mi Calm Calm - N/A   Clear
2:15 AM 16.2 °F - 13.6 °F 90% 30.14 in 4.0 mi Calm Calm - N/A   Clear
2:35 AM 14.5 °F - 11.7 °F 88% 30.13 in 2.5 mi Calm Calm - N/A   Clear
2:55 AM 15.6 °F 8.3 °F 13.1 °F 90% 30.13 in 3.0 mi ENE 4.6 mph - N/A   Scattered Clouds
3:15 AM 14.0 °F - 11.1 °F 88% 30.12 in 3.0 mi Calm Calm - N/A   Overcast
3:35 AM 14.9 °F - 12.0 °F 88% 30.12 in 3.0 mi Calm Calm - N/A   Mostly Cloudy
3:55 AM 13.8 °F - 11.1 °F 89% 30.13 in 3.0 mi Calm Calm - N/A   Clear
4:15 AM 16.3 °F - 13.8 °F 90% 30.13 in 2.5 mi Calm Calm - N/A   Clear
4:35 AM 18.1 °F - 15.6 °F 90% 30.13 in 3.0 mi Calm Calm - N/A   Mostly Cloudy
4:55 AM 13.6 °F - 10.8 °F 88% 30.14 in 3.0 mi Calm Calm - N/A   Overcast
5:15 AM 15.8 °F - 12.9 °F 88% 30.14 in 2.0 mi Calm Calm - N/A   Overcast
5:35 AM 14.0 °F - 12.2 °F 93% 30.16 in 4.0 mi Calm Calm - N/A   Scattered Clouds
5:55 AM 16.2 °F - 13.5 °F 89% 30.15 in 3.0 mi Calm Calm - N/A   Clear
6:15 AM 14.0 °F 8.2 °F 11.3 °F 89% 30.14 in 4.0 mi NE 3.5 mph - N/A   Clear
6:35 AM 13.6 °F 7.7 °F 10.9 °F 89% 30.14 in 4.0 mi NE 3.5 mph - N/A   Clear
6:55 AM 13.6 °F 7.7 °F 10.6 °F 88% 30.13 in 3.0 mi ENE 3.5 mph - N/A   Clear
7:15 AM 13.6 °F - 10.8 °F 88% 30.14 in 3.0 mi Calm Calm - N/A   Clear
7:35 AM 14.9 °F - 12.2 °F 89% 30.14 in 2.5 mi Calm Calm - N/A   Clear
7:55 AM 14.9 °F - 11.8 °F 88% 30.14 in 2.5 mi Calm Calm - N/A   Clear
8:15 AM 16.2 °F - 13.1 °F 88% 30.14 in 3.0 mi Calm Calm - N/A   Clear
8:35 AM 18.5 °F - 15.8 °F 89% 30.15 in 3.0 mi Calm Calm - N/A   Clear
8:55 AM 18.5 °F - 15.8 °F 89% 30.15 in 4.0 mi Calm Calm - N/A   Clear
9:15 AM 21.2 °F - 18.5 °F 89% 30.15 in 4.0 mi Calm Calm - N/A   Clear
9:35 AM 21.2 °F - 18.5 °F 89% 30.14 in 4.0 mi Calm Calm - N/A   Clear
9:55 AM 23.7 °F 19.3 °F 21.2 °F 90% 30.13 in 5.0 mi East 3.5 mph - N/A   Scattered Clouds
10:15 AM 26.6 °F 22.6 °F 23.0 °F 86% 30.14 in 5.0 mi East 3.5 mph - N/A   Mostly Cloudy
10:35 AM 28.8 °F - 24.1 °F 83% 30.14 in 5.0 mi Calm Calm - N/A   Haze
10:55 AM 32.0 °F - 26.6 °F 80% 30.14 in 5.0 mi Calm Calm - N/A   Haze
11:15 AM 33.8 °F - 27.5 °F 78% 30.15 in 5.0 mi Calm Calm - N/A   Haze
11:35 AM 33.8 °F - 27.7 °F 78% 30.14 in 5.0 mi Calm Calm - N/A   Haze
11:55 AM 33.8 °F 29.6 °F 27.1 °F 77% 30.14 in 5.0 mi ENE 4.6 mph - N/A   Haze
12:15 PM 34.5 °F 31.6 °F 27.7 °F 76% 30.13 in 5.0 mi ENE 3.5 mph - N/A   Haze
12:35 PM 34.7 °F 30.6 °F 28.4 °F 78% 30.11 in 7.0 mi NE 4.6 mph - N/A   Scattered Clouds
12:55 PM 36.1 °F - 30.0 °F 78% 30.12 in 7.0 mi Calm Calm - N/A   Clear
1:15 PM 36.7 °F - 29.7 °F 76% 30.12 in 7.0 mi Calm Calm - N/A   Scattered Clouds
1:35 PM 38.7 °F 35.2 °F 30.6 °F 73% 30.10 in 7.0 mi ENE 4.6 mph - N/A   Scattered Clouds
1:55 PM 38.7 °F 36.3 °F 30.4 °F 72% 30.10 in 7.0 mi ENE 3.5 mph - N/A   Mostly Cloudy
2:15 PM 38.7 °F 33.6 °F 30.4 °F 72% 30.10 in 7.0 mi ENE 6.9 mph - N/A   Scattered Clouds
2:35 PM 38.7 °F 33.6 °F 30.6 °F 73% 30.09 in 7.0 mi ENE 6.9 mph - N/A   Clear
2:55 PM 38.7 °F 33.6 °F 31.1 °F 74% 30.09 in 10.0 mi East 6.9 mph - N/A   Clear
3:15 PM 38.7 °F 35.2 °F 30.7 °F 73% 30.09 in 10.0 mi ENE 4.6 mph - N/A   Clear
3:35 PM 38.7 °F 35.2 °F 30.6 °F 73% 30.08 in 10.0 mi ENE 4.6 mph - N/A   Clear
3:55 PM 38.7 °F 34.3 °F 30.2 °F 72% 30.07 in 10.0 mi ENE 5.8 mph - N/A   Clear
4:15 PM 38.7 °F 34.3 °F 31.1 °F 74% 30.06 in 10.0 mi ENE 5.8 mph - N/A   Clear
4:35 PM 37.8 °F 35.3 °F 30.7 °F 76% 30.06 in 10.0 mi ENE 3.5 mph - N/A   Clear
4:55 PM 35.4 °F 32.6 °F 30.2 °F 81% 30.05 in 10.0 mi NE 3.5 mph - N/A   Clear
5:15 PM 33.8 °F 29.6 °F 29.3 °F 84% 30.06 in 7.0 mi NNE 4.6 mph - N/A   Clear
5:35 PM 34.3 °F 31.4 °F 28.9 °F 81% 30.06 in 10.0 mi NNE 3.5 mph - N/A   Clear
5:55 PM 33.8 °F - 28.2 °F 80% 30.05 in 10.0 mi Calm Calm - N/A   Clear
6:15 PM 33.8 °F 29.6 °F 27.9 °F 79% 30.05 in 10.0 mi North 4.6 mph - N/A   Clear
6:35 PM 33.8 °F 29.6 °F 28.0 °F 79% 30.05 in 10.0 mi North 4.6 mph - N/A   Clear
6:55 PM 33.8 °F 28.6 °F 28.6 °F 81% 30.04 in 7.0 mi North 5.8 mph - N/A   Clear
7:15 PM 34.0 °F 28.0 °F 28.6 °F 81% 30.03 in 10.0 mi NNE 6.9 mph - N/A   Clear
7:35 PM 34.7 °F 28.1 °F 29.3 °F 81% 30.02 in 10.0 mi NNE 8.1 mph - N/A   Clear
7:55 PM 34.9 °F 28.3 °F 28.6 °F 78% 30.01 in 10.0 mi NNE 8.1 mph - N/A   Clear
8:15 PM 34.7 °F 28.1 °F 28.9 °F 79% 30.02 in 10.0 mi NE 8.1 mph - N/A   Clear
8:35 PM 33.8 °F 27.0 °F 28.2 °F 80% 30.03 in 7.0 mi NE 8.1 mph - N/A   Clear
8:55 PM 33.8 °F 27.0 °F 27.9 °F 79% 30.03 in 10.0 mi NE 8.1 mph - N/A   Clear
9:15 PM 33.8 °F 26.4 °F 28.0 °F 79% 30.03 in 10.0 mi NE 9.2 mph - N/A   Clear
9:35 PM 33.8 °F 26.4 °F 28.4 °F 81% 30.03 in 10.0 mi ENE 9.2 mph - N/A   Clear
9:55 PM 33.8 °F 27.0 °F 29.1 °F 83% 30.04 in 7.0 mi East 8.1 mph - N/A   Scattered Clouds
10:15 PM 33.8 °F 28.6 °F 29.1 °F 83% 30.04 in 10.0 mi ENE 5.8 mph - N/A   Mostly Cloudy
10:35 PM 33.8 °F 27.7 °F 29.3 °F 84% 30.03 in 7.0 mi NE 6.9 mph - N/A   Overcast
10:55 PM 33.8 °F 27.7 °F 29.7 °F 85% 30.01 in 7.0 mi NNE 6.9 mph - N/A   Mostly Cloudy
11:15 PM 33.8 °F 25.8 °F 29.3 °F 84% 30.00 in 10.0 mi NE 10.4 mph - N/A   Clear
11:35 PM 33.8 °F 26.4 °F 29.3 °F 84% 29.98 in 10.0 mi NE 9.2 mph - N/A   Clear
11:55 PM 33.8 °F 27.0 °F 30.2 °F 87% 29.96 in 10.0 mi NE 8.1 mph - N/A   Clear